Regional Weather Roundup
Issued by NWS

Home | Current Version | Previous Version | Text Only | Print | Product List | Glossary Off
Versions: 1 2 3 4 5 6 7 8 9 10 11 12 13 14 15 16 17 18 19 20 21 22 23 24 25 26 27 28 29 30 31 32 33 34 35 36 37 38 39 40 41 42 43 44 45 46 47 48 49 50

000
ASUS43 KMPX 301210
RWRMN
WEATHER ROUNDUP FOR MINNESOTA
NATIONAL WEATHER SERVICE TWIN CITIES/CHANHASSEN MN
700 AM CDT SUN APR 30 2017


NOTE: "FAIR" INDICATES FEW OR NO CLOUDS BELOW 12,000 FEET WITH NO
SIGNIFICANT WEATHER AND/OR OBSTRUCTIONS TO VISIBILITY. N/A MEANS
CURRENT SKY AND/OR WEATHER CONDITIONS ARE NOT AVAILABLE.

MNZ060>063-068>070-301300-
   Twin Cities Metro

CITY           SKY/WX    TMP DP  RH WIND       PRES   REMARKS
TWIN CITIES    CLOUDY    44  23  43 E14       30.04F
6HR MIN TEMP:  44; 6HR MAX TEMP:  47;

ST PAUL        CLOUDY    43  24  47 NE9       30.06F
CRYSTAL        CLOUDY    43  22  43 E7        30.04F
BLAINE         CLOUDY    45  25  45 NE8       30.05
LAKEVILLE      CLOUDY    41  28  60 NE10      30.02F
EDEN PRAIRIE   CLOUDY    45  24  43 NE10      30.01F
6HR MIN TEMP:  45; 6HR MAX TEMP:  49;

SOUTH ST PAUL  CLOUDY    43  23  45 NE7G16    30.04S
LAKE ELMO      CLOUDY    41  27  56 NE13      30.05F
$$
MNZ001>005-007-008-013>017-022>024-027-028-301300-
   Northwest Minnesota

CITY           SKY/WX    TMP DP  RH WIND       PRES   REMARKS
BEMIDJI        CLOUDY    35  23  60 E5        30.17F WCI  31
HALLOCK        CLOUDY    36  28  75 SE9       30.16F
ROSEAU         MOCLDY    39  30  70 S8        30.19F
WARROAD        MOCLDY    37  28  70 S5        30.21S
THIEF RVR FALL PTCLDY    37  27  67 E5        30.19F
CROOKSTON      PTCLDY    37  28  70 SE5       30.18F
FOSSTON        CLOUDY    34  21  60 CALM      30.18S
DETROIT LAKES  CLOUDY    37  25  60 NE3       30.14F
MOORHEAD       CLEAR     34  25  69 E5        30.15F WCI  30
PARK RAPIDS    CLOUDY    40  18  41 NE6       30.14F
MAHNOMEN       FAIR      32  25  76 NE5       30.15F WCI  27
$$
MNZ006-009>011-018-025>026-301300-
   North Central Minnesota

CITY           SKY/WX    TMP DP  RH WIND       PRES   REMARKS
BAUDETTE       CLOUDY    35  22  58 SE7       30.22R WCI  29
FLAG ISLAND    MOCLDY    39  30  70 SE10      30.20S
INTL FALLS     CLOUDY    30  23  75 CALM      30.23S
6HR MIN TEMP:  27; 6HR MAX TEMP:  37;

WASKISH        PTCLDY    34  25  69 CALM      30.20F
BIG FORK       CLOUDY    34  21  60 CALM      30.21S
LONGVILLE      PTCLDY    36  18  48 NE5       30.15F
GRAND RAPIDS   CLOUDY    34  16  47 E3        30.19F
CRANE LAKE     MOCLDY    27  25  93 CALM      30.26S
ORR            CLOUDY    30  21  69 CALM      30.20F
COOK           CLOUDY    30  25  80 CALM      30.21F
WALKER         FAIR      38  20  48 NE5       30.16F
$$
MNZ012-019>021-037-301300-
   Northeast Minnesota

CITY           SKY/WX    TMP DP  RH WIND       PRES   REMARKS
DULUTH         CLOUDY    38  15  39 E13       30.16F
6HR MIN TEMP:  35; 6HR MAX TEMP:  38;

ELY            CLOUDY    27  23  86 CALM      30.22F
HIBBING        PTCLDY    31  18  58 NE3       30.19F
EVELETH        CLOUDY    35   9  33 NE6       30.21F WCI  30
DULUTH HARBOR  CLOUDY    37  32  81 NE14      30.19F
TWO HARBORS    CLOUDY    41  21  45 E9        30.18F
SILVER BAY     CLOUDY    39  18  41 NE9       30.20S
GRAND MARAIS     N/A     43  21  41 NE9       30.25S
G MARAIS ARPRT CLOUDY    34  16  47 NE6       30.23F WCI  29
$$
MNZ029>031-032-039>041-046>048-054>057-064-301300-
   West Central Minnesota

CITY           SKY/WX    TMP DP  RH WIND       PRES   REMARKS
FERGUS FALLS   PTCLDY    37  25  60 NE5       30.12F
WHEATON        CLOUDY    37  25  60 N8        30.11F
MORRIS         CLOUDY    39  27  60 NE7       30.05F
ALEXANDRIA     CLOUDY    39  23  52 NE9       30.08F
ELBOW LAKE     FAIR      40  26  56 E7        30.10F
WADENA         PTCLDY    36  21  55 NE6       30.12F
GLENWOOD       CLOUDY    37  25  60 NE12      30.07F
APPLETON       CLOUDY    39  27  60 NE9       30.05F
BENSON         CLOUDY    43  21  42 E8        30.07F
ORTONVILLE     CLOUDY    39  27  60 N10       30.06F
MADISON        CLOUDY    41  30  65 NE7       30.05F
WILLMAR        FAIR      41  27  56 NE10      30.05F
$$
MNZ033>034-036-042>043-049>051-058-059-301300-
   Central Minnesota

CITY           SKY/WX    TMP DP  RH WIND       PRES   REMARKS
ST CLOUD       CLOUDY    39  21  48 NE10      30.08F
6HR MIN TEMP:  39; 6HR MAX TEMP:  43;

SAUK CENTRE    FAIR      38  23  53 NE9       30.08F
PAYNESVILLE    CLOUDY    39  24  53 NE7       30.06F
AITKIN         CLOUDY    37  16  41 NE6       30.12F
PINE RIVER     MOCLDY    36  19  51 NE6       30.16F
BRAINERD       CLOUDY    37  19  48 NE8       30.13F
STAPLES        MOCLDY    36  19  51 N6        30.12F
LONG PRAIRIE   FAIR      37  23  56 N9        30.09F
LITTLE FALLS   CLOUDY    37  21  52 CALM      30.11S
LITCHFIELD     CLOUDY    41  27  56 NE9       30.04F
BUFFALO        CLOUDY    41  23  49 NE12G17   30.06F
MAPLE LAKE     CLOUDY    41  25  53 NE10      30.06F
HUTCHINSON     CLOUDY    42  29  59 NE8       30.04F
$$
MNZ037-044-045-052-053-301300-
   East Central Minnesota

CITY           SKY/WX    TMP DP  RH WIND       PRES   REMARKS
PRINCETON      CLOUDY    39  25  56 N8        30.09F
MORA           CLOUDY    36  21  55 NE7       30.12F
CAMBRIDGE      MOCLDY    41  25  52 NE9       30.07S
RUSH CITY      CLOUDY    38  22  53 NE8       30.10F
MOOSE LAKE     CLOUDY    36  21  55 NE7       30.12F
HINCKLEY       FAIR      37  25  60 NE8       30.11F
CLOQUET        CLOUDY    37  10  32 E10       30.15F
MCGREGOR       CLOUDY    36  19  51 NE5       30.15F
$$
MNZ071>073-080-081-089-090-097-098-301300-
   Southwest Minnesota

CITY           SKY/WX    TMP DP  RH WIND       PRES   REMARKS
MONTEVIDEO     CLOUDY    39  28  65 E8        30.04F
GRANITE FALLS  CLOUDY    42  30  61 NE10      30.05S
CANBY          CLOUDY    39  29  67 CALM      30.06S
MARSHALL       CLOUDY    41  28  60 E12       30.02S
REDWOOD FALLS  CLOUDY    43  26  51 NE7       30.03F
OLIVIA         CLOUDY    41  28  60 NE9       30.03S
PIPESTONE      CLOUDY    41  25  52 NE9       29.98F
WINDOM         RAIN      37  32  81 NE12      29.99F
WORTHINGTON    LGT SNOW  36  31  82 NE20      29.97F
JACKSON        FLURRIES  37  32  81 NE15G23   29.98F
TRACY          CLOUDY    42  31  64 E10       30.01F
SLAYTON        RAIN      39  29  67 NE12G17   30.00F
$$
MNZ065>067-074>077-082>085-091>093-301300-
   South Central Minnesota

CITY           SKY/WX    TMP DP  RH WIND       PRES   REMARKS
MANKATO        LGT RAIN  42  31  64 NE12      30.01S
NEW ULM        CLOUDY    43  27  52 NE9       30.01F
ST JAMES       LGT RAIN  41  32  70 NE8       30.01F
FAIRMONT       LGT RAIN  39  36  89 NE10      29.98F
GLENCOE        CLOUDY    43  31  63 NE3       30.03S
FARIBAULT      DRIZZLE   43  28  56 NE9G18    30.01S
OWATONNA       DRIZZLE   41  30  65 NE14G20   29.99S
WASECA         LGT RAIN  41  32  70 NE13      30.01R
ALBERT LEA     CLOUDY    39  30  70 NE12      29.94F
$$
MNZ078>079-086>088-094>096-301300-
   Southeast Minnesota

CITY           SKY/WX    TMP DP  RH WIND       PRES   REMARKS
ROCHESTER      CLOUDY    41  26  55 NE21G26   29.96F
6HR MIN TEMP:  41; 6HR MAX TEMP:  44; 6HR PCP: TRACE;

RED WING       CLOUDY    45  21  39 E9G16     30.01F
STANTON        CLOUDY    44  27  52 NE12      30.00F
DODGE CENTER   CLOUDY    39  27  60 NE13      29.97
WINONA         CLOUDY    43  28  56 E6        30.00F
AUSTIN         CLOUDY    41  28  60 NE10      29.95F
PRESTON        CLOUDY    40  27  59 NE14G20   29.95F
$$
ABBREVIATIONS USED IN REMARKS
   TC - TEMPERATURES IN CELSIUS
  WCI - WIND CHILL INDEX
   HX - HEAT INDEX
  VSB - VISIBILITY
$$




USA.gov is the U.S. government's official web portal to all federal, state and local government web resources and services.